M I D A S
Marine Information and Data Acquisition System
Tripno 1495 of the Zeeleeuw from 2008-05-29 08:08:25 to 2008-05-29 13:25:32
Back to CruiseResearch ActivitiesStationsMapUnderway DataData graphs

EquipmentUnitsComments
TimeDGPSUTC
LatitudeDGPSDM.mWGS84
LongitudeDGPSDM.mWGS84
SpeedMeteo Stationm/sRelative wind speed
DirectionMeteo StationdegRelative wind direction
TemperatureMeteo Stationdeg CelciusAir temperature
PressureMeteo StationPaAtmospheric pressure
HumidityMeteo Station%Relative humidity
Missing or incorrect values are displayed as -999
Metereological data collected by the RV Zeeleeuw from 2008-05-29 08:10:42 to 2008-05-29 13:32:13
Time Latitude Longitude Speed Direction Temperature Pressure Humidity
2008-05-29 08:11 51°13.643 2°55.99 4.3 15 15.9 101280 84
2008-05-29 08:12 51°13.678 2°55.881 3.7 309 15.9 101270 83
2008-05-29 08:13 51°13.695 2°55.781 6.7 305 15.9 101270 82
2008-05-29 08:14 51°13.698 2°55.754 3.6 308 16 101270 82
2008-05-29 08:15 51°13.701 2°55.757 3.9 328 16 101270 82
2008-05-29 08:16 51°13.72 2°55.74 5 1 16.1 101270 82
2008-05-29 08:17 51°13.809 2°55.652 7.1 345 16.1 101260 82
2008-05-29 08:18 51°13.902 2°55.581 7 351 16 101260 81
2008-05-29 08:19 51°13.994 2°55.521 6.2 346 16 101260 82
2008-05-29 08:20 51°14.068 2°55.47 6.9 354 16 101260 83
2008-05-29 08:21 51°14.132 2°55.424 5.1 353 15.9 101260 82
2008-05-29 08:22 51°14.219 2°55.355 9 357 15.9 101260 84
2008-05-29 08:23 51°14.286 2°55.234 7.6 7 15.8 101250 84
2008-05-29 08:24 51°14.363 2°55.024 7.4 4 15.8 101250 84
2008-05-29 08:25 51°14.452 2°54.751 8.5 2 15.8 101260 84
2008-05-29 08:26 51°14.545 2°54.477 7.5 3 15.8 101250 85
2008-05-29 08:27 51°14.639 2°54.186 7.4 5 15.7 101250 85
2008-05-29 08:28 51°14.698 2°53.883 7.4 18 15.7 101250 85
2008-05-29 08:29 51°14.755 2°53.57 7.1 6 15.7 101250 85
2008-05-29 08:30 51°14.81 2°53.257 6.3 5 15.7 101260 85
2008-05-29 08:31 51°14.861 2°52.947 7.8 8 15.8 101260 86
2008-05-29 08:32 51°14.897 2°52.619 8.4 12 15.7 101250 85
2008-05-29 08:33 51°14.937 2°52.295 8.5 10 15.7 101260 86
2008-05-29 08:34 51°14.975 2°51.98 7.6 8 15.7 101250 86
2008-05-29 08:35 51°15.021 2°51.657 7.3 6 15.7 101250 86
2008-05-29 08:36 51°15.065 2°51.343 6.9 4 15.7 101250 85
2008-05-29 08:37 51°15.117 2°51.035 8.3 7 15.7 101240 85
2008-05-29 08:38 51°15.17 2°50.716 9.5 9 15.7 101240 86
2008-05-29 08:39 51°15.224 2°50.408 9.1 8 15.6 101250 85
2008-05-29 08:40 51°15.275 2°50.087 8.5 7 15.7 101250 85
2008-05-29 08:41 51°15.323 2°49.772 8.2 4 15.7 101240 86
2008-05-29 08:42 51°15.378 2°49.457 8.6 2 15.6 101240 86
2008-05-29 08:43 51°15.437 2°49.145 8.2 358 15.6 101240 86
2008-05-29 08:44 51°15.5 2°48.828 7.8 360 15.6 101240 87
2008-05-29 08:45 51°15.568 2°48.517 9.1 359 15.5 101240 87
2008-05-29 08:46 51°15.632 2°48.21 8.2 360 15.5 101240 87
2008-05-29 08:47 51°15.697 2°47.901 7.7 359 15.5 101240 87
2008-05-29 08:48 51°15.764 2°47.597 9.1 358 15.4 101240 88
2008-05-29 08:49 51°15.843 2°47.291 8.1 360 15.4 101240 88
2008-05-29 08:50 51°15.913 2°46.988 8.1 1 15.4 101250 89
2008-05-29 08:51 51°15.99 2°46.696 8.1 359 15.3 101240 89
2008-05-29 08:52 51°16.074 2°46.398 9 357 15.3 101240 89
2008-05-29 08:53 51°16.159 2°46.111 9.4 356 15.3 101240 89
2008-05-29 08:54 51°16.253 2°45.821 8.9 359 15.2 101230 89
2008-05-29 08:55 51°16.345 2°45.528 8.5 357 15.2 101230 89
2008-05-29 08:56 51°16.444 2°45.236 10 357 15.2 101230 89
2008-05-29 08:57 51°16.545 2°44.943 8.7 357 15.2 101230 89
2008-05-29 08:58 51°16.643 2°44.647 10.2 358 15.1 101230 89
2008-05-29 08:59 51°16.746 2°44.349 10 358 15.1 101230 89
2008-05-29 09:00 51°16.838 2°44.057 10.5 354 15.1 101230 90
2008-05-29 09:01 51°16.945 2°43.768 10.3 357 15.1 101240 89
2008-05-29 09:02 51°17.069 2°43.506 11.2 355 15.1 101230 89
2008-05-29 09:03 51°17.194 2°43.239 10.9 357 15.1 101230 89
2008-05-29 09:04 51°17.319 2°42.975 11.8 355 15 101240 89
2008-05-29 09:05 51°17.448 2°42.716 11.8 357 15 101240 89
2008-05-29 09:06 51°17.573 2°42.449 10.5 354 15 101230 89
2008-05-29 09:07 51°17.709 2°42.192 11.3 355 15 101230 89
2008-05-29 09:08 51°17.842 2°41.922 11 357 15 101230 89
2008-05-29 09:09 51°17.953 2°41.648 10.7 358 15 101230 89
2008-05-29 09:10 51°18.061 2°41.36 10.3 357 15 101230 89
2008-05-29 09:11 51°18.164 2°41.081 10.3 359 14.9 101230 89
2008-05-29 09:12 51°18.267 2°40.796 9.5 357 14.9 101230 89
2008-05-29 09:13 51°18.374 2°40.516 9.1 354 14.9 101230 90
2008-05-29 09:14 51°18.491 2°40.248 9.5 356 14.9 101220 89
2008-05-29 09:15 51°18.603 2°39.972 10.9 358 14.9 101220 89
2008-05-29 09:16 51°18.717 2°39.696 10.4 356 14.9 101220 89
2008-05-29 09:17 51°18.839 2°39.418 11 359 14.9 101220 89
2008-05-29 09:18 51°18.953 2°39.147 10.6 356 14.9 101220 89
2008-05-29 09:19 51°19.069 2°38.865 10.6 356 14.9 101220 89
2008-05-29 09:20 51°19.177 2°38.599 11 354 14.8 101220 89
2008-05-29 09:21 51°19.281 2°38.31 10.7 355 14.8 101230 89
2008-05-29 09:22 51°19.406 2°38.052 11.7 353 14.8 101230 89
2008-05-29 09:23 51°19.529 2°37.791 9.8 353 14.8 101220 89
2008-05-29 09:24 51°19.655 2°37.539 10.6 355 14.8 101230 89
2008-05-29 09:25 51°19.77 2°37.326 10.9 357 14.8 101230 89
2008-05-29 09:26 51°19.849 2°37.182 7.3 5 14.7 101240 89
2008-05-29 09:27 51°19.893 2°37.107 7.3 8 14.8 101240 88
2008-05-29 09:28 51°19.931 2°37.051 7.2 7 14.7 101240 88
2008-05-29 09:29 51°19.974 2°36.996 6.8 3 14.7 101240 88
2008-05-29 09:30 51°20.02 2°36.934 7.3 6 14.8 101240 88
2008-05-29 09:31 51°20.05 2°36.889 8 7 14.8 101240 88
2008-05-29 09:32 51°20.064 2°36.877 6.8 6 14.8 101250 88
2008-05-29 09:33 51°20.066 2°36.876 6.6 7 14.8 101250 88
2008-05-29 09:34 51°20.067 2°36.876 6.5 17 14.8 101250 88
2008-05-29 09:35 51°20.066 2°36.876 6.9 21 14.8 101250 88
2008-05-29 09:36 51°20.066 2°36.877 8 25 14.8 101250 89
2008-05-29 09:37 51°20.064 2°36.877 6 25 14.8 101260 88
2008-05-29 09:38 51°20.07 2°36.863 6.7 7 14.8 101260 89
2008-05-29 09:39 51°20.113 2°36.849 9 334 14.8 101250 88
2008-05-29 09:40 51°20.149 2°36.903 6.3 306 14.8 101240 88
2008-05-29 09:41 51°20.158 2°36.947 8 305 14.9 101260 88
2008-05-29 09:42 51°20.158 2°36.972 8 309 14.9 101250 88
2008-05-29 09:43 51°20.156 2°36.98 4.9 300 15 101260 88
2008-05-29 09:44 51°20.154 2°36.982 6.3 306 15 101260 88
2008-05-29 09:45 51°20.153 2°36.981 7.9 55 15 101260 88
2008-05-29 09:46 51°20.151 2°36.98 6 53 14.9 101260 88
2008-05-29 09:47 51°20.149 2°36.977 7.1 52 14.9 101260 88
2008-05-29 09:48 51°20.146 2°36.974 7.3 55 14.8 101250 88
2008-05-29 09:49 51°20.142 2°36.973 6 305 14.9 101250 89
2008-05-29 09:50 51°20.139 2°36.971 7.2 308 14.8 101240 89
2008-05-29 09:51 51°20.137 2°36.967 4.4 309 14.8 101250 89
2008-05-29 09:52 51°20.134 2°36.963 5.6 303 14.9 101250 89
2008-05-29 09:53 51°20.133 2°36.958 6 303 14.9 101240 89
2008-05-29 09:54 51°20.131 2°36.951 4.7 285 14.9 101240 89
2008-05-29 09:55 51°20.127 2°36.946 5.7 284 14.9 101250 89
2008-05-29 09:56 51°20.124 2°36.943 7 307 14.9 101240 89
2008-05-29 09:57 51°20.121 2°36.938 5.5 303 14.9 101240 89
2008-05-29 09:58 51°20.118 2°36.932 5.4 301 14.9 101250 90
2008-05-29 09:59 51°20.114 2°36.927 5 278 14.9 101240 90
2008-05-29 10:00 51°20.11 2°36.923 5.1 280 14.9 101250 89
2008-05-29 10:01 51°20.106 2°36.919 5.3 284 14.9 101250 90
2008-05-29 10:02 51°20.102 2°36.916 4 285 14.9 101260 89
2008-05-29 10:03 51°20.099 2°36.911 4.7 308 14.9 101260 90
2008-05-29 10:04 51°20.095 2°36.907 3.6 279 15 101260 90
2008-05-29 10:05 51°20.092 2°36.901 4.3 307 14.9 101260 90
2008-05-29 10:06 51°20.092 2°36.89 5.8 283 15 101250 90
2008-05-29 10:07 51°20.091 2°36.881 6.6 303 14.9 101250 90
2008-05-29 10:08 51°20.088 2°36.873 5.4 280 14.9 101250 90
2008-05-29 10:09 51°20.084 2°36.866 6 307 14.9 101250 90
2008-05-29 10:10 51°20.079 2°36.861 4.9 277 14.9 101250 90
2008-05-29 10:11 51°20.074 2°36.857 3.6 278 14.9 101260 90
2008-05-29 10:12 51°20.069 2°36.854 4.4 284 14.9 101260 90
2008-05-29 10:13 51°20.064 2°36.853 4.7 306 14.9 101260 90
2008-05-29 10:14 51°20.058 2°36.851 6.6 307 14.9 101260 91
2008-05-29 10:15 51°20.053 2°36.849 4.7 279 15 101250 91
2008-05-29 10:16 51°20.046 2°36.847 5.8 307 15 101250 91
2008-05-29 10:17 51°20.04 2°36.847 6.1 277 15 101260 90
2008-05-29 10:18 51°20.034 2°36.845 6.4 284 15 101250 90
2008-05-29 10:19 51°20.027 2°36.842 6.3 279 15.1 101250 90
2008-05-29 10:20 51°20.02 2°36.841 7.9 302 15.1 101260 90
2008-05-29 10:21 51°20.013 2°36.839 7 278 15.1 101250 90
2008-05-29 10:22 51°20.005 2°36.837 6.9 278 15.1 101260 90
2008-05-29 10:23 51°19.991 2°36.846 3 303 15.1 101260 90
2008-05-29 10:24 51°19.955 2°36.851 4.5 58 15 101260 90
2008-05-29 10:25 51°19.926 2°36.803 5 37 15.1 101270 90
2008-05-29 10:26 51°19.93 2°36.733 6.9 9 15 101270 90
2008-05-29 10:27 51°19.962 2°36.689 6.4 350 15 101270 90
2008-05-29 10:28 51°19.995 2°36.682 6.6 342 14.9 101260 90
2008-05-29 10:29 51°20.013 2°36.677 5.3 342 14.9 101260 91
2008-05-29 10:30 51°20.023 2°36.669 5.8 347 14.9 101260 91
2008-05-29 10:31 51°20.028 2°36.657 6 348 14.8 101260 91
2008-05-29 10:32 51°20.03 2°36.644 5.3 352 14.8 101270 92
2008-05-29 10:33 51°20.029 2°36.628 5.8 355 14.8 101270 92
2008-05-29 10:34 51°20.025 2°36.612 5.8 11 14.7 101260 92
2008-05-29 10:35 51°20.021 2°36.597 5.2 19 14.7 101280 92
2008-05-29 10:36 51°20.016 2°36.582 5.5 21 14.8 101280 93
2008-05-29 10:37 51°20.01 2°36.567 5.5 20 14.7 101280 93
2008-05-29 10:38 51°20.004 2°36.552 5.4 22 14.7 101270 93
2008-05-29 10:39 51°20.015 2°36.519 6.9 356 14.7 101270 93
2008-05-29 10:40 51°20.054 2°36.518 8.1 302 14.7 101270 92
2008-05-29 10:41 51°20.084 2°36.587 7.5 303 14.8 101270 92
2008-05-29 10:42 51°20.104 2°36.656 6.4 283 14.8 101270 92
2008-05-29 10:43 51°20.109 2°36.701 7.1 304 14.8 101270 92
2008-05-29 10:44 51°20.107 2°36.727 6.8 306 14.8 101280 92
2008-05-29 10:45 51°20.101 2°36.74 6.7 308 14.8 101280 92
2008-05-29 10:46 51°20.094 2°36.747 8 307 14.8 101280 91
2008-05-29 10:47 51°20.087 2°36.738 6.1 279 14.8 101280 91
2008-05-29 10:48 51°20.079 2°36.725 6.9 303 14.9 101290 91
2008-05-29 10:49 51°20.07 2°36.71 5.9 279 14.9 101280 91
2008-05-29 10:50 51°20.061 2°36.694 4.2 306 14.9 101290 91
2008-05-29 10:51 51°20.053 2°36.678 4.2 302 14.8 101280 91
2008-05-29 10:52 51°20.044 2°36.662 4.1 309 14.8 101290 91
2008-05-29 10:53 51°20.037 2°36.645 3.9 301 14.8 101290 91
2008-05-29 10:54 51°20.028 2°36.626 5.2 279 14.8 101290 91
2008-05-29 10:55 51°20.02 2°36.609 4.4 279 14.7 101300 92
2008-05-29 10:56 51°20.011 2°36.59 5.2 279 14.7 101300 91
2008-05-29 10:57 51°20.003 2°36.57 4.4 280 14.7 101290 92
2008-05-29 10:58 51°19.989 2°36.565 6.6 281 14.7 101300 92
2008-05-29 10:59 51°19.976 2°36.582 6.4 285 14.7 101300 92
2008-05-29 11:00 51°19.976 2°36.608 6.7 281 14.7 101290 91
2008-05-29 11:01 51°19.987 2°36.63 6.2 278 14.7 101300 91
2008-05-29 11:02 51°20 2°36.645 6.3 331 14.7 101300 91
2008-05-29 11:03 51°20.012 2°36.658 5.5 279 14.8 101310 91
2008-05-29 11:04 51°20.018 2°36.664 5.3 303 14.8 101310 91
2008-05-29 11:05 51°20.017 2°36.663 5.4 285 14.8 101310 91
2008-05-29 11:06 51°20.013 2°36.658 5.7 283 14.8 101310 91
2008-05-29 11:07 51°20.01 2°36.653 5.3 284 14.8 101310 91
2008-05-29 11:08 51°20.007 2°36.648 6.1 285 14.8 101310 91
2008-05-29 11:09 51°20.005 2°36.642 6 278 14.8 101310 91
2008-05-29 11:10 51°20.013 2°36.641 6.1 281 14.8 101310 91
2008-05-29 11:11 51°20.025 2°36.627 6 352 14.8 101310 91
2008-05-29 11:12 51°20.026 2°36.602 5.2 7 14.7 101310 91
2008-05-29 11:13 51°20.022 2°36.572 5.8 21 14.7 101310 91
2008-05-29 11:14 51°20.018 2°36.543 4.5 19 14.7 101310 91
2008-05-29 11:15 51°20.013 2°36.514 4.7 21 14.7 101310 92
2008-05-29 11:16 51°20.006 2°36.486 5.7 20 14.7 101310 92
2008-05-29 11:17 51°20.004 2°36.454 5.5 9 14.7 101310 92
2008-05-29 11:18 51°20.022 2°36.415 6.5 278 14.7 101300 92
2008-05-29 11:19 51°20.051 2°36.413 6.4 285 14.6 101300 92
2008-05-29 11:20 51°20.064 2°36.459 6.4 280 14.7 101300 92
2008-05-29 11:21 51°20.068 2°36.528 5.9 281 14.7 101300 92
2008-05-29 11:22 51°20.068 2°36.599 5.3 280 14.7 101300 92
2008-05-29 11:23 51°20.056 2°36.637 6.9 280 14.7 101290 92
2008-05-29 11:24 51°20.062 2°36.671 5.6 282 14.7 101290 92
2008-05-29 11:25 51°20.075 2°36.69 5.9 305 14.7 101290 92
2008-05-29 11:26 51°20.088 2°36.694 5.8 280 14.8 101290 92
2008-05-29 11:27 51°20.101 2°36.682 5.7 348 14.8 101280 92
2008-05-29 11:28 51°20.109 2°36.654 5.8 -999 14.7 101290 92
2008-05-29 11:29 51°20.111 2°36.618 5.5 5 14.7 101290 92
2008-05-29 11:30 51°20.11 2°36.58 5.9 6 14.6 101280 92
2008-05-29 11:31 51°20.107 2°36.544 4.7 6 14.6 101280 92
2008-05-29 11:32 51°20.125 2°36.502 7.2 286 14.6 101270 92
2008-05-29 11:33 51°20.156 2°36.519 7.3 282 14.6 101270 92
2008-05-29 11:34 51°20.168 2°36.546 5.6 304 14.6 101270 92
2008-05-29 11:35 51°20.169 2°36.535 5.3 284 14.7 101270 92
2008-05-29 11:36 51°20.165 2°36.514 5.9 337 14.7 101270 91
2008-05-29 11:37 51°20.159 2°36.488 4.8 280 14.7 101270 91
2008-05-29 11:38 51°20.15 2°36.458 6.1 351 14.7 101270 91
2008-05-29 11:39 51°20.139 2°36.429 6.3 2 14.6 101260 91
2008-05-29 11:40 51°20.172 2°36.414 7.7 301 14.6 101260 91
2008-05-29 11:41 51°20.181 2°36.47 5.4 280 14.6 101250 92
2008-05-29 11:42 51°20.162 2°36.504 6.1 282 14.7 101260 92
2008-05-29 11:43 51°20.139 2°36.532 6.1 278 14.7 101260 92
2008-05-29 11:44 51°20.122 2°36.559 6.3 279 14.7 101250 92
2008-05-29 11:45 51°20.109 2°36.583 6.1 304 14.7 101250 92
2008-05-29 11:46 51°20.097 2°36.592 6.9 286 14.7 101240 92
2008-05-29 11:47 51°20.088 2°36.591 7.4 284 14.7 101250 92
2008-05-29 11:48 51°20.079 2°36.582 5.5 282 14.7 101250 92
2008-05-29 11:49 51°20.07 2°36.559 5.6 304 14.7 101240 92
2008-05-29 11:50 51°20.07 2°36.58 7.2 304 14.7 101240 92
2008-05-29 11:51 51°20.1 2°36.586 5.6 282 14.7 101240 92
2008-05-29 11:52 51°20.088 2°36.566 6.1 355 14.7 101230 92
2008-05-29 11:53 51°20.074 2°36.547 4.7 2 14.6 101230 92
2008-05-29 11:54 51°20.062 2°36.527 5 11 14.6 101240 93
2008-05-29 11:55 51°20.051 2°36.507 5.8 11 14.6 101230 93
2008-05-29 11:56 51°20.041 2°36.485 5.2 19 14.6 101240 93
2008-05-29 11:57 51°20.031 2°36.459 5.2 20 14.5 101240 93
2008-05-29 11:58 51°20.021 2°36.432 5.7 23 14.5 101230 93
2008-05-29 11:59 51°20.011 2°36.405 5 23 14.5 101230 93
2008-05-29 12:00 51°20.002 2°36.376 5.8 23 14.5 101230 93
2008-05-29 12:01 51°19.992 2°36.347 5.5 18 14.5 101230 93
2008-05-29 12:02 51°19.982 2°36.318 5 19 14.5 101230 93
2008-05-29 12:03 51°19.972 2°36.287 5 18 14.5 101230 93
2008-05-29 12:04 51°19.963 2°36.254 4.9 7 14.5 101230 93
2008-05-29 12:05 51°19.987 2°36.202 6.8 331 14.5 101220 93
2008-05-29 12:06 51°20.021 2°36.252 5.7 304 14.5 101220 94
2008-05-29 12:07 51°19.992 2°36.402 7.9 302 14.5 101220 94
2008-05-29 12:08 51°19.959 2°36.636 7.6 301 14.5 101210 94
2008-05-29 12:09 51°19.928 2°36.904 8.4 300 14.6 101200 94
2008-05-29 12:10 51°19.9 2°37.206 8.8 308 14.6 101200 93
2008-05-29 12:11 51°19.863 2°37.497 9.6 307 14.6 101200 94
2008-05-29 12:12 51°19.833 2°37.796 7.9 304 14.6 101200 94
2008-05-29 12:13 51°19.798 2°38.1 8 302 14.6 101190 94
2008-05-29 12:14 51°19.769 2°38.396 9.3 303 14.6 101190 94
2008-05-29 12:15 51°19.735 2°38.698 8.3 309 14.6 101190 94
2008-05-29 12:16 51°19.699 2°39.005 8.8 303 14.7 101190 94
2008-05-29 12:17 51°19.663 2°39.309 6.9 301 14.6 101180 94
2008-05-29 12:18 51°19.629 2°39.609 8.8 308 14.7 101190 94
2008-05-29 12:19 51°19.587 2°39.92 6.7 303 14.7 101180 94
2008-05-29 12:20 51°19.553 2°40.222 8.3 303 14.7 101190 94
2008-05-29 12:21 51°19.515 2°40.518 6.7 310 14.7 101180 94
2008-05-29 12:22 51°19.478 2°40.809 8.3 303 14.7 101180 94
2008-05-29 12:23 51°19.431 2°41.099 6.8 303 14.7 101170 94
2008-05-29 12:24 51°19.385 2°41.383 7.7 308 14.8 101180 94
2008-05-29 12:25 51°19.335 2°41.674 8.9 307 14.8 101170 94
2008-05-29 12:26 51°19.278 2°41.973 8.5 303 14.8 101170 93
2008-05-29 12:27 51°19.223 2°42.264 7.4 303 14.8 101170 93
2008-05-29 12:28 51°19.172 2°42.566 7.7 304 14.9 101160 93
2008-05-29 12:29 51°19.117 2°42.864 7 302 14.9 101150 93
2008-05-29 12:30 51°19.061 2°43.157 7.8 307 14.9 101160 93
2008-05-29 12:31 51°18.998 2°43.448 9 306 14.9 101150 93
2008-05-29 12:32 51°18.94 2°43.74 9.2 306 14.9 101140 93
2008-05-29 12:33 51°18.882 2°44.028 9.4 305 14.9 101140 93
2008-05-29 12:34 51°18.828 2°44.325 9 303 14.9 101140 92
2008-05-29 12:35 51°18.772 2°44.605 9.1 305 15 101140 92
2008-05-29 12:36 51°18.718 2°44.885 9 301 15 101140 92
2008-05-29 12:37 51°18.662 2°45.163 8 305 15 101140 92
2008-05-29 12:38 51°18.601 2°45.451 8.2 306 15 101140 91
2008-05-29 12:39 51°18.542 2°45.732 11.1 303 15.1 101130 91
2008-05-29 12:40 51°18.492 2°46.026 8.4 308 15.1 101130 91
2008-05-29 12:41 51°18.442 2°46.316 8.5 308 15.1 101130 91
2008-05-29 12:42 51°18.393 2°46.604 8.5 303 15.1 101130 90
2008-05-29 12:43 51°18.343 2°46.889 11.3 309 15.2 101130 90
2008-05-29 12:44 51°18.297 2°47.175 11.3 300 15.2 101130 90
2008-05-29 12:45 51°18.252 2°47.461 9.2 305 15.2 101130 90
2008-05-29 12:46 51°18.208 2°47.742 11 307 15.3 101130 89
2008-05-29 12:47 51°18.16 2°48.035 9.1 300 15.3 101130 89
2008-05-29 12:48 51°18.114 2°48.316 9.7 305 15.3 101120 88
2008-05-29 12:49 51°18.071 2°48.607 11.5 303 15.4 101130 88
2008-05-29 12:50 51°18.018 2°48.888 9.6 303 15.4 101120 87
2008-05-29 12:51 51°17.976 2°49.172 9.9 307 15.5 101130 87
2008-05-29 12:52 51°17.928 2°49.456 12.9 308 15.5 101130 86
2008-05-29 12:53 51°17.887 2°49.744 9 301 15.5 101130 86
2008-05-29 12:54 51°17.849 2°50.032 12.1 300 15.5 101130 86
2008-05-29 12:55 51°17.809 2°50.32 12 309 15.5 101130 86
2008-05-29 12:56 51°17.77 2°50.608 11.1 304 15.6 101130 85
2008-05-29 12:57 51°17.73 2°50.892 10.8 301 15.6 101130 85
2008-05-29 12:58 51°17.675 2°51.183 10.3 304 15.6 101130 85
2008-05-29 12:59 51°17.629 2°51.467 10.1 304 15.6 101120 84
2008-05-29 13:00 51°17.53 2°51.739 9.8 305 15.6 101130 84
2008-05-29 13:01 51°17.383 2°51.951 8.6 309 15.6 101130 85
2008-05-29 13:02 51°17.275 2°52.064 8.3 304 15.6 101150 85
2008-05-29 13:03 51°17.226 2°52.082 7.1 63 15.7 101150 85
2008-05-29 13:04 51°17.186 2°52.074 5.1 306 15.7 101150 85
2008-05-29 13:05 51°17.093 2°52.125 7.3 306 15.6 101150 85
2008-05-29 13:06 51°16.914 2°52.208 5.1 307 15.7 101150 85
2008-05-29 13:07 51°16.696 2°52.241 3.6 300 15.7 101160 85
2008-05-29 13:08 51°16.481 2°52.277 4.1 302 15.7 101160 85
2008-05-29 13:09 51°16.267 2°52.298 3.3 301 15.7 101160 85
2008-05-29 13:10 51°16.045 2°52.319 5.1 307 15.7 101160 85
2008-05-29 13:11 51°15.839 2°52.387 6.2 304 15.8 101160 85
2008-05-29 13:12 51°15.666 2°52.559 7.4 303 15.8 101150 85
2008-05-29 13:13 51°15.522 2°52.769 8.7 303 15.8 101140 85
2008-05-29 13:14 51°15.39 2°53.011 8.9 309 15.8 101140 85
2008-05-29 13:15 51°15.249 2°53.239 6.8 303 15.8 101130 85
2008-05-29 13:16 51°15.13 2°53.462 7.9 302 15.8 101140 85
2008-05-29 13:17 51°15.043 2°53.628 7.6 305 15.9 101140 85
2008-05-29 13:18 51°14.967 2°53.764 8.3 303 15.9 101140 85
2008-05-29 13:19 51°14.89 2°53.895 6.8 302 15.9 101140 85
2008-05-29 13:20 51°14.817 2°54.061 7.3 304 15.9 101140 85
2008-05-29 13:21 51°14.741 2°54.264 7.8 303 15.9 101130 85
2008-05-29 13:22 51°14.655 2°54.423 8.4 301 15.9 101140 85
2008-05-29 13:23 51°14.556 2°54.585 9.3 307 16 101140 85
2008-05-29 13:24 51°14.456 2°54.827 10.5 307 16 101120 84
2008-05-29 13:25 51°14.356 2°55.086 10.7 303 16 101120 84
2008-05-29 13:26 51°14.273 2°55.243 7.8 307 16 101130 84
2008-05-29 13:27 51°14.199 2°55.347 6.4 306 16 101140 84
2008-05-29 13:28 51°14.109 2°55.43 3.4 301 16 101150 84
2008-05-29 13:29 51°14.019 2°55.491 4.1 308 16 101150 84
2008-05-29 13:30 51°13.911 2°55.572 5.3 304 16 101150 83
2008-05-29 13:31 51°13.798 2°55.669 3.7 307 16.1 101150 83